Date String (YYYY-MM-DD hh:mm:ss) UTC,Instrument flags,Ambient pressure (hPa),Sample flow (lpm),Bypass flow (lpm),Sample temperature (°C),Ambient temperature (°C),ASC tube jacket temperature (°C),LED temperature (°C),Box temperature (°C),Sample RH (%),Span deviation,Mass concentration (μg/m³),Mass concentration (μg/m³),Mass concentration (μg/m³)
DateTimeUTC,F1_M11,P_M11,Q1_M11,Q2_M11,T1_M11,T2_M11,T3_M11,T4_M11,T5_M11,U1_M11,ZSPAN_M11,X2_M11,X0_M11,X1_M11
2022-07-09 20:00:00,,0832.1,5.00,0.00,29.0,27.0,00.0,37.7,30.8,14.4,0000.0,0003.45,0007.49,0002.58
2022-07-09 20:01:00,,0832.0,5.01,0.00,29.0,27.1,00.0,37.7,30.8,14.3,0000.0,0003.44,0007.92,0002.58
2022-07-09 20:02:00,,0832.0,5.01,0.00,29.0,27.4,00.0,37.7,30.9,14.3,0000.0,0003.43,0007.90,0002.59
2022-07-09 20:03:00,,0832.0,5.01,0.00,29.0,27.6,00.0,37.7,31.0,14.1,0000.0,0003.42,0007.89,0002.59
2022-07-09 20:04:00,,0832.0,5.00,0.00,29.1,27.8,00.0,37.7,31.0,14.2,0000.0,0003.42,0008.38,0002.59
2022-07-09 20:05:00,,0832.0,5.00,0.00,29.1,27.7,00.0,37.7,31.1,14.6,0000.0,0003.40,0008.49,0002.59
2022-07-09 20:06:00,,0831.9,4.99,0.00,29.1,27.1,00.0,37.7,30.9,14.7,0000.0,0003.38,0008.33,0002.58
2022-07-09 20:07:00,,0831.9,5.00,0.00,29.0,26.9,00.0,37.6,30.9,14.5,0000.0,0003.37,0008.46,0002.55
2022-07-09 20:08:00,,0831.9,4.99,0.00,29.0,27.0,00.0,37.7,30.9,14.4,0000.0,0003.34,0008.82,0002.51
2022-07-09 20:09:00,,0831.8,5.00,0.00,29.0,27.2,00.0,37.7,30.8,14.4,0000.0,0003.29,0008.95,0002.50
2022-07-09 20:10:00,,0831.8,5.00,0.00,29.0,27.4,00.0,37.7,30.9,14.4,0000.0,0003.29,0009.56,0002.49
2022-07-09 20:11:00,,0831.8,4.99,0.00,29.1,27.6,00.0,37.7,31.0,14.4,0000.0,0003.31,0009.32,0002.47
2022-07-09 20:12:00,,0831.8,5.01,0.00,29.1,27.8,00.0,37.7,31.1,14.6,0000.0,0003.30,0008.69,0002.46
2022-07-09 20:13:00,,0831.7,4.99,0.00,29.1,28.0,00.0,37.7,31.1,14.6,0000.0,0003.27,0008.92,0002.44
2022-07-09 20:14:00,,0831.7,5.01,0.00,29.1,27.5,00.0,37.7,31.1,14.5,0000.0,0003.27,0009.07,0002.43
2022-07-09 20:15:00,,0831.8,5.00,0.00,29.1,27.0,00.0,37.7,31.0,14.6,0000.0,0003.27,0008.70,0002.43
2022-07-09 20:16:00,,0831.7,5.00,0.00,29.1,27.1,00.0,37.7,31.0,14.5,0000.0,0003.29,0008.55,0002.42
2022-07-09 20:17:00,,0831.7,5.00,0.00,29.1,27.2,00.0,37.7,30.9,14.6,0000.0,0003.29,0008.56,0002.43
2022-07-09 20:18:00,,0831.7,5.00,0.00,29.1,27.4,00.0,37.7,30.9,14.6,0000.0,0003.32,0008.50,0002.46
2022-07-09 20:19:00,,0831.7,5.00,0.00,29.1,27.6,00.0,37.7,31.0,15.0,0000.0,0003.31,0008.20,0002.48
2022-07-09 20:20:00,,0831.7,5.01,0.00,29.1,27.8,00.0,37.7,31.0,14.5,0000.0,0003.32,0007.93,0002.49
2022-07-09 20:21:00,,0831.7,5.00,0.00,29.1,27.7,00.0,37.7,31.1,14.5,0000.0,0003.33,0007.34,0002.49
2022-07-09 20:22:00,,0831.7,5.00,0.00,29.1,27.1,00.0,37.7,31.0,14.6,0000.0,0003.30,0007.26,0002.49
2022-07-09 20:23:00,,0831.7,4.99,0.00,29.1,26.9,00.0,37.7,30.9,14.5,0000.0,0003.31,0007.35,0002.51
2022-07-09 20:24:00,,0831.7,5.01,0.00,29.0,27.0,00.0,37.7,30.9,14.7,0000.0,0003.33,0006.89,0002.52
2022-07-09 20:25:00,,0831.7,4.99,0.00,29.0,27.2,00.0,37.7,30.8,14.5,0000.0,0003.36,0007.07,0002.53
2022-07-09 20:26:00,,0831.6,4.99,0.00,29.1,27.4,00.0,37.7,30.9,14.6,0000.0,0003.37,0007.21,0002.54
2022-07-09 20:27:00,,0831.6,5.01,0.00,29.1,27.7,00.0,37.7,31.0,14.7,0000.0,0003.35,0007.49,0002.55
2022-07-09 20:28:00,,0831.6,5.00,0.00,29.1,27.9,00.0,37.7,31.1,14.8,0000.0,0003.35,0007.85,0002.54
2022-07-09 20:29:00,,0831.6,5.01,0.00,29.2,27.7,00.0,37.7,31.1,15.0,0000.0,0003.33,0007.79,0002.53
2022-07-09 20:30:00,,0831.5,5.00,0.00,29.1,27.1,00.0,37.7,31.0,15.0,0000.0,0003.33,0007.58,0002.55
2022-07-09 20:31:00,,0831.6,4.99,0.00,29.1,27.0,00.0,37.7,31.0,14.7,0000.0,0003.32,0007.86,0002.56
2022-07-09 20:32:00,,0831.6,5.00,0.00,29.1,27.1,00.0,37.7,30.9,14.4,0000.0,0003.32,0008.56,0002.57
2022-07-09 20:33:00,,0831.6,5.00,0.00,29.1,27.3,00.0,37.7,30.9,14.4,0000.0,0003.33,0008.53,0002.58
2022-07-09 20:34:00,,0831.6,5.00,0.00,29.1,27.5,00.0,37.7,31.0,14.8,0000.0,0003.30,0008.41,0002.57
2022-07-09 20:35:00,,0831.6,5.00,0.00,29.1,27.7,00.0,37.7,31.1,14.2,0000.0,0003.29,0008.40,0002.57
2022-07-09 20:36:00,,0831.6,5.00,0.00,29.2,27.8,00.0,37.7,31.1,14.4,0000.0,0003.26,0008.32,0002.58
2022-07-09 20:37:00,,0831.4,5.00,0.00,29.2,27.4,00.0,37.7,31.1,14.6,0000.0,0003.27,0008.83,0002.60
2022-07-09 20:38:00,,0831.6,5.00,0.00,29.1,27.0,00.0,37.7,31.0,14.3,0000.0,0003.27,0009.18,0002.59
2022-07-09 20:39:00,,0831.5,5.00,0.00,29.1,27.0,00.0,37.7,30.9,14.1,0000.0,0003.26,0008.87,0002.60
2022-07-09 20:40:00,,0831.5,5.00,0.00,29.1,27.2,00.0,37.7,30.9,14.2,0000.0,0003.26,0008.99,0002.61
2022-07-09 20:41:00,,0831.5,5.01,0.00,29.1,27.4,00.0,37.7,30.9,14.3,0000.0,0003.27,0009.69,0002.61
2022-07-09 20:42:00,,0831.5,4.99,0.00,29.1,27.6,00.0,37.7,31.0,14.5,0000.0,0003.30,0009.59,0002.61
2022-07-09 20:43:00,,0831.5,5.00,0.00,29.1,27.8,00.0,37.7,31.1,14.4,0000.0,0003.31,0008.69,0002.63
2022-07-09 20:44:00,,0831.5,5.00,0.00,29.2,27.6,00.0,37.7,31.1,14.5,0000.0,0003.34,0008.80,0002.64
2022-07-09 20:45:00,,0831.5,4.99,0.00,29.1,27.0,00.0,37.7,31.0,14.5,0000.0,0003.33,0008.82,0002.64
2022-07-09 20:46:00,,0831.3,5.00,0.00,29.1,26.9,00.0,37.7,30.9,14.6,0000.0,0003.33,0009.14,0002.64
2022-07-09 20:47:00,,0831.4,5.00,0.00,29.1,27.1,00.0,37.7,30.9,14.6,0000.0,0003.34,0009.53,0002.64
2022-07-09 20:48:00,,0831.4,5.00,0.00,29.1,27.2,00.0,37.7,30.9,14.1,0000.0,0003.35,0008.89,0002.65
2022-07-09 20:49:00,,0831.4,5.00,0.00,29.1,27.4,00.0,37.7,30.9,14.6,0000.0,0003.34,0008.14,0002.67
2022-07-09 20:50:00,,0831.4,5.00,0.00,29.1,27.7,00.0,37.7,31.1,14.6,0000.0,0003.32,0008.31,0002.67
2022-07-09 20:51:00,,0831.4,5.00,0.00,29.1,27.8,00.0,37.7,31.1,14.5,0000.0,0003.32,0008.31,0002.68
2022-07-09 20:52:00,,0831.3,5.00,0.00,29.1,27.3,00.0,37.7,31.0,14.5,0000.0,0003.34,0008.51,0002.67
2022-07-09 20:53:00,,0831.4,4.99,0.00,29.1,26.9,00.0,37.7,30.9,14.6,0000.0,0003.35,0010.07,0002.67
2022-07-09 20:54:00,,0831.3,5.00,0.00,29.1,27.0,00.0,37.7,30.9,14.9,0000.0,0003.35,0010.23,0002.65
2022-07-09 20:55:00,,0831.5,5.00,0.00,29.0,27.2,00.0,37.7,30.9,15.1,0000.0,0003.34,0011.51,0002.64
2022-07-09 20:56:00,,0831.4,5.02,0.00,29.1,27.4,00.0,37.7,31.0,14.5,0000.0,0003.35,0012.19,0002.64
2022-07-09 20:57:00,,0831.3,5.01,0.00,29.1,27.6,00.0,37.7,31.0,14.5,0000.0,0003.37,0012.57,0002.67
2022-07-09 20:58:00,,0831.4,5.00,0.00,29.1,27.8,00.0,37.7,31.1,14.8,0000.0,0003.39,0012.70,0002.67
2022-07-09 20:59:00,,0831.4,5.00,0.00,29.1,27.6,00.0,37.7,31.1,15.0,0000.0,0003.37,0012.63,0002.66
